| time (UTC) | temp C | wind direction | speed KPH | gust KPH | rain 1hr cm | rain 24hr cm | rain mn cm | humidity % | barometer mb |
| 20260504081702 | 8 | 131 | 3.2 | 3.2 | 0.00 | 0.00 | 0.00 | 97 | 1007.5 |
| 20260504081158 | 7 | 303 | 0.0 | 0.0 | 0.00 | 0.00 | 0.00 | 96 | 1007.6 |
| 20260504080655 | 7 | 303 | 0.0 | 0.0 | 0.00 | 0.00 | 0.00 | 97 | 1007.5 |
| 20260504080152 | 7 | 309 | 0.0 | 0.0 | 0.00 | 0.00 | 0.00 | 97 | 1007.5 |
| 20260504070119 | 8 | 317 | 0.0 | 0.0 | 0.00 | 0.00 | 0.00 | 96 | 1008.0 |
| 20260504050508 | 14 | 308 | 0.0 | 0.0 | 0.00 | 0.00 | 0.00 | 69 | 1008.9 |
| 20260504050004 | 14 | 315 | 0.0 | 0.0 | 0.00 | 0.00 | 0.00 | 68 | 1008.9 |
| 20260504045500 | 14 | 303 | 0.0 | 0.0 | 0.00 | 0.00 | 0.00 | 68 | 1009.2 |
| 20260504044956 | 15 | 301 | 0.0 | 0.0 | 0.00 | 0.00 | 0.00 | 67 | 1008.9 |
| 20260504044454 | 15 | 307 | 0.0 | 0.0 | 0.00 | 0.00 | 0.00 | 67 | 1009.1 |
| 20260504043951 | 15 | 304 | 0.0 | 0.0 | 0.00 | 0.00 | 0.00 | 66 | 1009.1 |
| 20260504043449 | 15 | 307 | 0.0 | 0.0 | 0.00 | 0.00 | 0.00 | 66 | 1009.1 |
| 20260504042946 | 15 | 305 | 0.0 | 0.0 | 0.00 | 0.00 | 0.00 | 65 | 1009.2 |
| 20260504042442 | 15 | 303 | 0.0 | 0.0 | 0.00 | 0.00 | 0.00 | 65 | 1009.4 |
| 20260504041939 | 15 | 305 | 0.0 | 0.0 | 0.00 | 0.00 | 0.00 | 65 | 1009.3 |
| 20260504041435 | 15 | 296 | 0.0 | 0.0 | 0.00 | 0.00 | 0.00 | 64 | 1009.1 |
| 20260504040931 | 15 | 304 | 0.0 | 0.0 | 0.00 | 0.00 | 0.00 | 64 | 1009.3 |
| 20260504040429 | 15 | 348 | 0.0 | 0.0 | 0.00 | 0.00 | 0.00 | 64 | 1009.2 |
| 20260504035925 | 16 | 303 | 0.0 | 0.0 | 0.00 | 0.00 | 0.00 | 63 | 1009.2 |
| 20260504035423 | 16 | 309 | 0.0 | 0.0 | 0.00 | 0.00 | 0.00 | 62 | 1009.3 |
| 20260504034919 | 16 | 301 | 0.0 | 4.8 | 0.00 | 0.00 | 0.00 | 61 | 1009.4 |
| 20260504034417 | 16 | 219 | 4.8 | 6.4 | 0.00 | 0.00 | 0.00 | 61 | 1009.4 |
| 20260504033914 | 16 | 304 | 0.0 | 3.2 | 0.00 | 0.00 | 0.00 | 60 | 1009.5 |
| 20260504033412 | 16 | 225 | 1.6 | 6.4 | 0.00 | 0.00 | 0.00 | 62 | 1009.6 |
| 20260504032909 | 16 | 303 | 0.0 | 0.0 | 0.00 | 0.00 | 0.00 | 62 | 1009.6 |
| 20260504032405 | 16 | 303 | 0.0 | 4.8 | 0.00 | 0.00 | 0.00 | 62 | 1009.3 |
| 20260504031902 | 16 | 333 | 0.0 | 1.6 | 0.00 | 0.00 | 0.00 | 62 | 1009.5 |
| 20260504031359 | 16 | 301 | 1.6 | 3.2 | 0.00 | 0.00 | 0.00 | 63 | 1009.6 |
| 20260504030856 | 16 | 307 | 0.0 | 0.0 | 0.00 | 0.00 | 0.00 | 63 | 1009.4 |
| 20260504030353 | 16 | 307 | 0.0 | 0.0 | 0.00 | 0.00 | 0.00 | 63 | 1009.4 |
| 20260504025849 | 16 | 311 | 0.0 | 3.2 | 0.00 | 0.00 | 0.00 | 63 | 1009.6 |
| 20260504025346 | 16 | 291 | 0.0 | 4.8 | 0.00 | 0.00 | 0.00 | 63 | 1009.4 |
| 20260504024843 | 16 | 335 | 0.0 | 0.0 | 0.00 | 0.00 | 0.00 | 63 | 1009.5 |
| 20260504024339 | 16 | 125 | 1.6 | 3.2 | 0.00 | 0.00 | 0.00 | 62 | 1009.6 |
| 20260504023836 | 16 | 306 | 0.0 | 0.0 | 0.00 | 0.00 | 0.00 | 63 | 1009.6 |
| 20260504023333 | 16 | 279 | 3.2 | 4.8 | 0.00 | 0.00 | 0.00 | 63 | 1009.4 |
| 20260504022829 | 16 | 305 | 0.0 | 3.2 | 0.00 | 0.00 | 0.00 | 63 | 1009.5 |
| 20260504022326 | 16 | 302 | 0.0 | 0.0 | 0.00 | 0.00 | 0.00 | 64 | 1009.6 |
| 20260504021822 | 15 | 303 | 0.0 | 0.0 | 0.00 | 0.00 | 0.00 | 64 | 1009.4 |
| 20260504021320 | 15 | 301 | 0.0 | 0.0 | 0.00 | 0.00 | 0.00 | 64 | 1009.4 |
| 20260504020817 | 16 | 302 | 0.0 | 0.0 | 0.00 | 0.00 | 0.00 | 64 | 1009.4 |
| 20260504020313 | 15 | 279 | 0.0 | 0.0 | 0.00 | 0.00 | 0.00 | 63 | 1009.4 |
| 20260504015809 | 15 | 308 | 0.0 | 0.0 | 0.00 | 0.00 | 0.00 | 65 | 1009.4 |
| 20260504015306 | 15 | 310 | 0.0 | 0.0 | 0.00 | 0.00 | 0.00 | 65 | 1009.5 |
| 20260504014802 | 16 | 342 | 1.6 | 3.2 | 0.00 | 0.00 | 0.00 | 63 | 1009.4 |
| 20260504014258 | 16 | 305 | 0.0 | 0.0 | 0.00 | 0.00 | 0.00 | 63 | 1009.5 |
| 20260504013756 | 16 | 304 | 0.0 | 0.0 | 0.00 | 0.00 | 0.00 | 62 | 1009.4 |
| 20260504013253 | 16 | 307 | 0.0 | 0.0 | 0.00 | 0.00 | 0.00 | 61 | 1009.3 |
| 20260504012749 | 16 | 308 | 0.0 | 0.0 | 0.00 | 0.00 | 0.00 | 60 | 1009.4 |
| 20260504012248 | 17 | 314 | 0.0 | 0.0 | 0.00 | 0.00 | 0.00 | 59 | 1009.2 |
| 20260504011744 | 17 | 317 | 0.0 | 0.0 | 0.00 | 0.00 | 0.00 | 58 | 1009.0 |
| 20260504011241 | 17 | 306 | 0.0 | 0.0 | 0.00 | 0.00 | 0.00 | 58 | 1009.0 |
| 20260504010737 | 17 | 298 | 0.0 | 0.0 | 0.00 | 0.00 | 0.00 | 57 | 1009.2 |
| 20260504010233 | 17 | 322 | 0.0 | 0.0 | 0.00 | 0.00 | 0.00 | 56 | 1009.2 |
| 20260504005730 | 18 | 319 | 0.0 | 0.0 | 0.00 | 0.00 | 0.00 | 55 | 1009.0 |
| 20260504005227 | 18 | 266 | 0.0 | 1.6 | 0.00 | 0.00 | 0.00 | 54 | 1009.1 |
| 20260504004724 | 18 | 305 | 0.0 | 0.0 | 0.00 | 0.00 | 0.00 | 54 | 1009.2 |
| 20260504004221 | 18 | 271 | 0.0 | 6.4 | 0.00 | 0.00 | 0.00 | 52 | 1008.9 |
| 20260504003718 | 19 | 2 | 1.6 | 6.4 | 0.00 | 0.00 | 0.00 | 52 | 1009.3 |
| 20260504003215 | 19 | 296 | 0.0 | 6.4 | 0.00 | 0.00 | 0.00 | 53 | 1009.0 |
| 20260504002712 | 19 | 81 | 1.6 | 6.4 | 0.00 | 0.00 | 0.00 | 52 | 1009.0 |
| 20260504002209 | 19 | 289 | 3.2 | 3.2 | 0.00 | 0.00 | 0.00 | 51 | 1009.2 |
| 20260504001707 | 20 | 282 | 0.0 | 4.8 | 0.00 | 0.00 | 0.00 | 51 | 1008.9 |
| 20260504001203 | 20 | 310 | 0.0 | 4.8 | 0.00 | 0.00 | 0.00 | 51 | 1009.1 |
| 20260504000700 | 20 | 304 | 1.6 | 4.8 | 0.00 | 0.00 | 0.00 | 51 | 1009.0 |
| 20260504000157 | 20 | 302 | 3.2 | 6.4 | 0.00 | 0.00 | 0.00 | 51 | 1009.1 |
| 20260503235655 | 20 | 188 | 0.0 | 3.2 | 0.00 | 0.00 | 0.00 | 51 | 1009.2 |
| 20260503235151 | 20 | 271 | 0.0 | 3.2 | 0.00 | 0.00 | 0.00 | 50 | 1009.0 |
| 20260503234650 | 20 | 305 | 0.0 | 1.6 | 0.00 | 0.00 | 0.00 | 50 | 1009.0 |
| 20260503234148 | 20 | 256 | 4.8 | 6.4 | 0.00 | 0.00 | 0.00 | 49 | 1009.2 |
| 20260503233644 | 20 | 127 | 0.0 | 1.6 | 0.00 | 0.00 | 0.00 | 49 | 1009.1 |
| 20260503233140 | 21 | 108 | 0.0 | 3.2 | 0.00 | 0.00 | 0.00 | 48 | 1009.0 |
| 20260503232637 | 21 | 286 | 1.6 | 4.8 | 0.00 | 0.00 | 0.00 | 48 | 1009.2 |
| 20260503232134 | 21 | 272 | 1.6 | 3.2 | 0.00 | 0.00 | 0.00 | 48 | 1009.3 |
| 20260503231632 | 20 | 111 | 4.8 | 9.7 | 0.00 | 0.00 | 0.00 | 48 | 1009.1 |
| 20260503231128 | 20 | 339 | 0.0 | 3.2 | 0.00 | 0.00 | 0.00 | 48 | 1009.1 |
| 20260503230625 | 20 | 326 | 3.2 | 9.7 | 0.00 | 0.00 | 0.00 | 48 | 1009.0 |
| 20260503230123 | 21 | 249 | 0.0 | 4.8 | 0.00 | 0.00 | 0.00 | 47 | 1009.2 |
| 20260503225620 | 21 | 256 | 6.4 | 11.3 | 0.00 | 0.00 | 0.00 | 45 | 1009.5 |
| 20260503225119 | 21 | 298 | 3.2 | 4.8 | 0.00 | 0.00 | 0.00 | 45 | 1009.4 |
| 20260503224617 | 20 | 310 | 0.0 | 6.4 | 0.00 | 0.00 | 0.00 | 46 | 1009.4 |
| 20260503224115 | 20 | 242 | 3.2 | 6.4 | 0.00 | 0.00 | 0.00 | 46 | 1009.4 |
| 20260503223613 | 20 | 292 | 3.2 | 4.8 | 0.00 | 0.00 | 0.00 | 45 | 1009.4 |
| 20260503223108 | 20 | 163 | 3.2 | 9.7 | 0.00 | 0.00 | 0.00 | 45 | 1009.4 |
| 20260503222606 | 20 | 283 | 3.2 | 16.1 | 0.00 | 0.00 | 0.00 | 45 | 1009.5 |
| 20260503222104 | 20 | 12 | 1.6 | 12.9 | 0.00 | 0.00 | 0.00 | 46 | 1009.8 |
| 20260503221602 | 20 | 186 | 0.0 | 4.8 | 0.00 | 0.00 | 0.00 | 45 | 1009.6 |
| 20260503221059 | 20 | 268 | 4.8 | 9.7 | 0.00 | 0.00 | 0.00 | 46 | 1009.9 |
| 20260503220555 | 20 | 147 | 6.4 | 9.7 | 0.00 | 0.00 | 0.00 | 44 | 1009.8 |
| 20260503220052 | 20 | 296 | 3.2 | 14.5 | 0.00 | 0.00 | 0.00 | 44 | 1010.0 |
| 20260503215549 | 20 | 53 | 4.8 | 6.4 | 0.00 | 0.00 | 0.00 | 43 | 1009.8 |
| 20260503215046 | 20 | 145 | 4.8 | 11.3 | 0.00 | 0.00 | 0.00 | 46 | 1010.0 |
| 20260503214544 | 20 | 26 | 1.6 | 14.5 | 0.00 | 0.00 | 0.00 | 45 | 1009.6 |
| 20260503214040 | 20 | 337 | 4.8 | 12.9 | 0.00 | 0.00 | 0.00 | 45 | 1009.5 |
| 20260503213539 | 20 | 256 | 6.4 | 11.3 | 0.00 | 0.00 | 0.00 | 45 | 1009.8 |
| 20260503213035 | 20 | 33 | 3.2 | 12.9 | 0.00 | 0.00 | 0.00 | 45 | 1009.9 |
| 20260503212533 | 20 | 228 | 6.4 | 11.3 | 0.00 | 0.00 | 0.00 | 44 | 1009.8 |
| 20260503212030 | 20 | 235 | 3.2 | 4.8 | 0.00 | 0.00 | 0.00 | 45 | 1010.0 |
| 20260503211527 | 20 | 140 | 9.7 | 17.7 | 0.00 | 0.00 | 0.00 | 44 | 1009.8 |
| 20260503211023 | 20 | 85 | 1.6 | 12.9 | 0.00 | 0.00 | 0.00 | 45 | 1009.8 |
| 20260503210520 | 20 | 185 | 3.2 | 9.7 | 0.00 | 0.00 | 0.00 | 46 | 1009.8 |
| 20260503210015 | 19 | 238 | 3.2 | 11.3 | 0.00 | 0.00 | 0.00 | 44 | 1009.9 |
| 20260503205512 | 20 | 225 | 0.0 | 24.1 | 0.00 | 0.00 | 0.00 | 45 | 1010.1 |
| 20260503205009 | 20 | 288 | 3.2 | 11.3 | 0.00 | 0.00 | 0.00 | 44 | 1010.0 |
| 20260503204506 | 20 | 168 | 9.7 | 14.5 | 0.00 | 0.00 | 0.00 | 41 | 1010.2 |
| 20260503204003 | 20 | 294 | 4.8 | 14.5 | 0.00 | 0.00 | 0.00 | 42 | 1010.4 |
| 20260503203500 | 21 | 189 | 6.4 | 12.9 | 0.00 | 0.00 | 0.00 | 42 | 1010.4 |
| 20260503202956 | 20 | 27 | 4.8 | 9.7 | 0.00 | 0.00 | 0.00 | 43 | 1010.3 |
| 20260503202455 | 20 | 172 | 9.7 | 12.9 | 0.00 | 0.00 | 0.00 | 41 | 1010.2 |
| 20260503201953 | 19 | 55 | 3.2 | 14.5 | 0.00 | 0.00 | 0.00 | 43 | 1010.5 |
| 20260503201450 | 19 | 239 | 9.7 | 14.5 | 0.00 | 0.00 | 0.00 | 43 | 1010.7 |
| 20260503200947 | 18 | 183 | 3.2 | 12.9 | 0.00 | 0.00 | 0.00 | 43 | 1010.5 |
| 20260503200444 | 18 | 159 | 9.7 | 22.5 | 0.00 | 0.00 | 0.00 | 42 | 1010.3 |
| 20260503195940 | 19 | 352 | 11.3 | 29.0 | 0.00 | 0.00 | 0.00 | 42 | 1010.6 |
| 20260503195438 | 20 | 257 | 4.8 | 11.3 | 0.00 | 0.00 | 0.00 | 42 | 1010.5 |
| 20260503194934 | 20 | 189 | 9.7 | 14.5 | 0.00 | 0.00 | 0.00 | 41 | 1010.3 |
| 20260503194431 | 20 | 102 | 9.7 | 22.5 | 0.00 | 0.00 | 0.00 | 39 | 1010.8 |
| 20260503193926 | 21 | 172 | 9.7 | 16.1 | 0.00 | 0.00 | 0.00 | 39 | 1010.7 |
| 20260503193422 | 21 | 187 | 3.2 | 16.1 | 0.00 | 0.00 | 0.00 | 39 | 1010.6 |
| 20260503192918 | 21 | 124 | 3.2 | 11.3 | 0.00 | 0.00 | 0.00 | 42 | 1010.7 |
| 20260503192415 | 20 | 279 | 3.2 | 12.9 | 0.00 | 0.00 | 0.00 | 42 | 1010.9 |
| 20260503191910 | 20 | 92 | 19.3 | 25.7 | 0.00 | 0.00 | 0.00 | 39 | 1011.1 |
| 20260503191408 | 20 | 235 | 6.4 | 16.1 | 0.00 | 0.00 | 0.00 | 40 | 1011.2 |
| 20260503190904 | 20 | 183 | 6.4 | 30.6 | 0.00 | 0.00 | 0.00 | 39 | 1010.8 |
| 20260503190402 | 20 | 120 | 11.3 | 20.9 | 0.00 | 0.00 | 0.00 | 40 | 1010.9 |
| 20260503185858 | 20 | 309 | 4.8 | 9.7 | 0.00 | 0.00 | 0.00 | 40 | 1011.1 |
| 20260503185355 | 20 | 268 | 4.8 | 16.1 | 0.00 | 0.00 | 0.00 | 40 | 1010.9 |
| 20260503184854 | 19 | 302 | 9.7 | 14.5 | 0.00 | 0.00 | 0.00 | 40 | 1011.3 |
| 20260503184350 | 19 | 115 | 9.7 | 29.0 | 0.00 | 0.00 | 0.00 | 40 | 1011.1 |
| 20260503183846 | 18 | 354 | 9.7 | 24.1 | 0.00 | 0.00 | 0.00 | 41 | 1011.4 |
| 20260503183344 | 18 | 106 | 19.3 | 33.8 | 0.00 | 0.00 | 0.00 | 40 | 1011.3 |
| 20260503182841 | 18 | 142 | 19.3 | 30.6 | 0.00 | 0.00 | 0.00 | 41 | 1011.2 |
| 20260503182340 | 18 | 208 | 3.2 | 16.1 | 0.00 | 0.00 | 0.00 | 43 | 1011.6 |
| 20260503181837 | 18 | 125 | 9.7 | 14.5 | 0.00 | 0.00 | 0.00 | 42 | 1011.6 |
| 20260503181334 | 17 | 130 | 11.3 | 22.5 | 0.00 | 0.00 | 0.00 | 43 | 1011.9 |
| 20260503180830 | 17 | 133 | 14.5 | 25.7 | 0.00 | 0.00 | 0.00 | 43 | 1012.2 |
| 20260503180328 | 17 | 198 | 4.8 | 24.1 | 0.00 | 0.00 | 0.00 | 45 | 1011.9 |
| 20260503175824 | 17 | 280 | 4.8 | 17.7 | 0.00 | 0.00 | 0.00 | 45 | 1012.0 |
| 20260503175323 | 18 | 131 | 8.0 | 24.1 | 0.00 | 0.00 | 0.00 | 43 | 1012.3 |
| 20260503174818 | 17 | 94 | 4.8 | 29.0 | 0.00 | 0.00 | 0.00 | 46 | 1012.1 |
| 20260503174316 | 17 | 148 | 6.4 | 22.5 | 0.00 | 0.00 | 0.00 | 48 | 1012.3 |
| 20260503173817 | 16 | 130 | 11.3 | 16.1 | 0.00 | 0.00 | 0.00 | 47 | 1012.6 |
| 20260503173313 | 16 | 268 | 6.4 | 14.5 | 0.00 | 0.00 | 0.00 | 48 | 1012.9 |
| 20260503172810 | 16 | 103 | 14.5 | 22.5 | 0.00 | 0.00 | 0.00 | 47 | 1013.1 |
| 20260503172307 | 16 | 182 | 4.8 | 27.4 | 0.00 | 0.00 | 0.00 | 49 | 1013.3 |
| 20260503171803 | 16 | 263 | 8.0 | 16.1 | 0.00 | 0.00 | 0.00 | 49 | 1013.6 |
| 20260503171300 | 16 | 135 | 3.2 | 14.5 | 0.00 | 0.00 | 0.00 | 49 | 1013.5 |
| 20260503170758 | 16 | 114 | 4.8 | 12.9 | 0.00 | 0.00 | 0.00 | 49 | 1013.9 |
| 20260503170254 | 16 | 208 | 1.6 | 22.5 | 0.00 | 0.00 | 0.00 | 50 | 1013.8 |
| 20260503160217 | 14 | 113 | 3.2 | 9.7 | 0.00 | 0.00 | 0.00 | 54 | 1015.0 |
| 20260503150646 | 14 | 132 | 6.4 | 17.7 | 0.00 | 0.00 | 0.00 | 52 | 1016.3 |
| 20260503150142 | 15 | 148 | 8.0 | 11.3 | 0.00 | 0.00 | 0.00 | 52 | 1016.3 |
| 20260503140107 | 11 | 113 | 3.2 | 6.4 | 0.00 | 0.00 | 0.00 | 65 | 1016.9 |
| 20260503131036 | 10 | 315 | 0.0 | 3.2 | 0.00 | 0.00 | 0.00 | 69 | 1017.5 |
| 20260503130533 | 10 | 115 | 0.0 | 6.4 | 0.00 | 0.00 | 0.00 | 70 | 1017.5 |
| 20260503110424 | 6 | 346 | 0.0 | 1.6 | 0.00 | 0.00 | 0.00 | 76 | 1017.5 |